ANZ197 NZAA-YMHB

Flight info

Callsign ANZ197
Flight time N/A
Altitude 36000
Route VELMO L513 HEWIT
Aircraft A320/M-SDE3FGHIRWY/LB1

Departure

Time 2026-05-06 04:08
Airport Auckland International Airport (NZAA)

Arrival

Time N/A
Airport Hobart International Airport (YMHB)
Time Latitude Longitude Altitude Speed Heading
2026-05-06 03:41 -37.00648 174.78319 26 ft 0 kts 294°
2026-05-06 03:58 -37.00651 174.78328 57 ft 4 kts 294°
2026-05-06 03:58 -37.00663 174.78358 30 ft 4 kts 296°
2026-05-06 03:58 -37.00675 174.78388 31 ft 4 kts 296°
2026-05-06 03:59 -37.00686 174.78413 31 ft 4 kts 320°
2026-05-06 03:59 -37.00709 174.78425 28 ft 4 kts
2026-05-06 03:59 -37.00734 174.78426 25 ft 4 kts 317°
2026-05-06 03:59 -37.00739 174.78435 27 ft 1 kts 282°
2026-05-06 04:00 -37.00739 174.78436 27 ft 0 kts 282°
2026-05-06 04:01 -37.00737 174.78426 25 ft 2 kts 279°
2026-05-06 04:02 -37.00741 174.78404 25 ft 3 kts 248°
2026-05-06 04:02 -37.00763 174.78382 25 ft 5 kts 206°
2026-05-06 04:02 -37.00801 174.78374 26 ft 6 kts 188°
2026-05-06 04:02 -37.00851 174.78365 28 ft 8 kts 187°
2026-05-06 04:03 -37.00912 174.78361 25 ft 9 kts 181°
2026-05-06 04:03 -37.00981 174.78366 25 ft 11 kts 163°
2026-05-06 04:03 -37.01056 174.78376 30 ft 12 kts 198°
2026-05-06 04:03 -37.01109 174.78300 25 ft 13 kts 247°
2026-05-06 04:04 -37.01141 174.78192 29 ft 14 kts 254°
2026-05-06 04:04 -37.01168 174.78072 28 ft 15 kts 251°
2026-05-06 04:04 -37.01203 174.77943 26 ft 16 kts 254°
2026-05-06 04:04 -37.01239 174.77805 27 ft 17 kts 250°
2026-05-06 04:05 -37.01280 174.77656 25 ft 19 kts 250°
2026-05-06 04:05 -37.01323 174.77498 26 ft 20 kts 251°
2026-05-06 04:05 -37.01369 174.77330 28 ft 21 kts 251°
2026-05-06 04:05 -37.01406 174.77199 26 ft 14 kts 249°
2026-05-06 04:06 -37.01445 174.77117 27 ft 11 kts 207°
2026-05-06 04:06 -37.01522 174.77087 29 ft 12 kts 190°
2026-05-06 04:06 -37.01604 174.77091 27 ft 12 kts 141°
2026-05-06 04:06 -37.01601 174.77193 26 ft 13 kts 72°
2026-05-06 04:07 -37.01529 174.77448 26 ft 62 kts 69°
2026-05-06 04:07 -37.01318 174.78198 26 ft 118 kts 69°
2026-05-06 04:07 -37.00990 174.79354 27 ft 162 kts 71°
2026-05-06 04:07 -37.00619 174.80785 311 ft 179 kts 71°
2026-05-06 04:08 -37.00229 174.82260 913 ft 178 kts 68°
2026-05-06 04:08 -36.99823 174.83712 1613 ft 176 kts 69°
2026-05-06 04:08 -36.99404 174.85199 2044 ft 190 kts 68°
2026-05-06 04:08 -36.98931 174.86858 2241 ft 215 kts 68°
2026-05-06 04:09 -36.98403 174.88717 2513 ft 239 kts 68°
2026-05-06 04:09 -36.97839 174.90727 3117 ft 249 kts 68°
2026-05-06 04:09 -36.97264 174.92786 3901 ft 253 kts 68°
2026-05-06 04:09 -36.96687 174.94858 4699 ft 257 kts 68°
2026-05-06 04:10 -36.96098 174.96975 5505 ft 260 kts 68°
2026-05-06 04:10 -36.95504 174.99135 6260 ft 265 kts 71°
2026-05-06 04:10 -36.95323 175.01453 6957 ft 275 kts 97°
2026-05-06 04:10 -36.96039 175.03689 7626 ft 284 kts 125°
2026-05-06 04:11 -36.97560 175.05289 8279 ft 292 kts 154°
2026-05-06 04:11 -36.99479 175.06185 8971 ft 296 kts 160°
2026-05-06 04:11 -37.01444 175.07023 9673 ft 300 kts 162°
2026-05-06 04:11 -37.03513 175.07365 10333 ft 303 kts 187°
2026-05-06 04:12 -37.05518 175.06600 10922 ft 304 kts 212°
2026-05-06 04:12 -37.07135 175.04834 11139 ft 319 kts 238°
2026-05-06 04:12 -37.08068 175.02255 11275 ft 335 kts 253°
2026-05-06 04:12 -37.08825 174.99449 11716 ft 344 kts 253°
2026-05-06 04:13 -37.09600 174.96598 12315 ft 347 kts 253°
2026-05-06 04:13 -37.10390 174.93716 12933 ft 351 kts 253°